Regional Weather Roundup
Issued by NWS

Home | Current Version | Previous Version | Graphics & Text | Print | Product List | Glossary On
Versions: 1 2 3 4 5 6 7 8 9 10 11 12 13 14 15 16 17 18 19 20 21 22 23 24 25 26 27 28
000
ASUS45 KSLC 281510
RWRUT

UTAH REGIONAL WEATHER ROUNDUP
NATIONAL WEATHER SERVICE SALT LAKE CITY UT
900 AM MDT THU APR 28 2016

UTZ001>011-023>025-281600-

NORTHERN UTAH

CITY           SKY/WX    TMP DP  RH WIND       PRES   REMARKS
BRIGHAM CITY     N/A     50  28  43 SE9G24    29.74R
HILL AFB       LGT RAIN  42  35  76 E21       29.73R
LOGAN            N/A     46  33  60 NE8       29.76R
OGDEN          CLOUDY    48  33  56 S6        29.70R
PROVO AIRPORT  CLOUDY    46  39  76 CALM      29.73F
SALT LAKE CITY PTSUNNY   47  37  68 SE3       29.70R
VERNAL         LGT RAIN  39  33  79 NE12      29.77R WCI  32
WENDOVER       CLOUDY    45  36  70 N13G21    29.74R
HEBER CITY     MIX PCPN  39  34  81 N5        29.72R

$$

UTZ012>022-026-027-281600-

SOUTHERN/CENTRAL UTAH

CITY           SKY/WX    TMP DP  RH WIND       PRES   REMARKS
BLANDING       CLOUDY    45  40  85 E7        29.80F
BRYCE CANYON   SNOW      31  30  96 SE9       29.71S VSB 1/2 WCI  23
CEDAR CITY     PTSUNNY   39  37  92 S3        29.66R
DELTA          CLOUDY    43  37  81 CALM      29.68R
HANKSVILLE     CLOUDY    41  39  93 SE13G24   29.75R
MILFORD        CLOUDY    40  38  93 N6        29.67S
MOAB/CYNLANDS  LGT RAIN  47  41  80 E9        29.71S
PRICE          CLOUDY    38  36  92 CALM      29.73R FOG
ST GEORGE      PTSUNNY   50  41  71 NE9       29.69R

$$

REGIONAL REPORTS     COLORADO/ARIZONA

CITY           SKY/WX    TMP DP  RH WIND       PRES   REMARKS
CRAIG, CO      CLOUDY    37  31  78 W7        29.79R WCI  32
GRAND JUNCTION LGT RAIN  40  38  93 N6        29.76S
RIFLE          LGT RAIN  43  38  82 E6        29.76R
MONTROSE       CLOUDY    43  38  82 CALM      29.79R
CORTEZ         PTSUNNY   53  33  46 SE16      29.75S
PAGE, AZ         N/A     48  43  82 N9        29.68R
GRAND CANYON   CLOUDY    42  34  73 S13G22    29.71R
KINGMAN        CLOUDY    46  42  86 N12       29.71R
FLAGSTAFF      PTSUNNY   39  30  70 SW14      29.73R WCI  31

$$

REGIONAL REPORTS    NEVADA/IDAHO/WYOMING

CITY           SKY/WX    TMP DP  RH WIND       PRES   REMARKS
LAS VEGAS, NV  PTSUNNY   55  48  77 S7        29.61R
ELY            LGT SNOW  33  33 100 N12       29.71S FOG     WCI  24
ELKO           CLOUDY    43  37  79 NE6       29.76R
POCATELLO, ID  MOSUNNY   43  31  62 NE15      29.82S
BURLEY           N/A     45  33  63 E8        29.81S
EVANSTON, WY   CLOUDY    32  25  75 E21G28    29.79S WCI  20
ROCK SPRINGS   CLOUDY    32  25  75 NE24G36   29.85R WCI  19

$$




USA.gov is the U.S. government's official web portal to all federal, state and local government web resources and services.